Weather in Reims

France     49°15′40″N   4°01′53″E
temp.,
°C
wind,
m/s
gust,
m/s
humid.,
%
clouds,
%
prec.,
mm/h
press.,
hPa
HPBL,
m
1 march, mon
mon101:00+3e25830 0.0 1032108
04:00+2e23870 0.0 103052
07:00+1e23890 0.0 103155
10:00+5e49720 0.0 1030381
13:00+10e47600 0.0 1030580
16:00+11e47580 0.0 1028785
19:00+7e33750 0.0 102831
22:00+5ese34830 0.0 102880
2 march, tue
tue201:00+4ese23870 0.0 102935
04:00+3ese23890 0.0 102830
07:00+3se23900 0.0 102930
10:00+7se247926 0.0 1029223
13:00+13sse346529 0.0 1030440
16:00+14se246312 0.0 1028548
19:00+10sse12807 0.0 102922
22:00+8se228314 0.0 102922
3 march, wed
wed301:00+7sse22877 0.0 102922
04:00+6sse12890 0.0 102922
07:00+5sse11883 0.0 102922
10:00+9sse227516 0.0 1029175
13:00+14s236224 0.0 1028572
16:00+14sw2364100 0.0 1026790
19:00+10s128288 0.0 102522
22:00+10s2285100 0.4 102446
4 march, thu
thu401:00+10s2689100 0.9 1023152
04:00+8sw259580 0.4 1021136
07:00+7wsw239646 0.4 102087
10:00+9w46870 0.1 1019441
13:00+10w478241 0.1 1019700
16:00+11wnw457479 0.1 1017830
19:00+8n378988 0.3 1018346
22:00+6n478895 0.0 1019504
5 march, fri
fri501:00+4n479197 0.0 1019426
04:00+4n578295 0.0 1019647
07:00+3n477797 0.0 1020812
10:00+4nne5769100 0.0 10211101
13:00+4nne5764100 0.1 10221236
16:00+5nne686598 0.1 10231249
19:00+3nne6106993 0.1 1024656
22:000ne5127117 0.0 1027534